EW8633 Weather Reports


time (UTC)temp
F
wind
direction
speed
knots
gust
knots
rain 1hr
in
rain 24hr
in
rain mn
in
humidity
%
barometer
mb
20260505025305 71 145 1.7 5.2 0.00 0.00 0.00 53 998.1
20260505024804 71 127 2.6 6.1 0.00 0.00 0.00 52 998.1
20260505023803 71 111 3.5 8.7 0.00 0.00 0.00 52 998.0
20260505022304 71 194 3.5 7.8 0.00 0.00 0.00 50 997.9
20260505021304 72 167 2.6 5.2 0.00 0.00 0.00 50 997.8
20260505020803 72 172 2.6 5.2 0.00 0.00 0.00 49 997.7
20260505015304 73 173 2.6 5.2 0.00 0.00 0.00 48 997.6
20260505014303 73 180 2.6 7.0 0.00 0.00 0.00 48 997.5
20260505013303 73 171 1.7 4.3 0.00 0.00 0.00 48 997.5
20260505012804 74 116 2.6 7.8 0.00 0.00 0.00 46 997.5
20260505012304 74 153 1.7 4.3 0.00 0.00 0.00 47 997.5
20260505010303 74 166 2.6 6.1 0.00 0.00 0.00 46 997.5
20260505005803 74 131 3.5 7.8 0.00 0.00 0.00 46 997.4
20260505005304 75 184 2.6 6.1 0.00 0.00 0.00 46 997.4
20260505004804 75 116 2.6 7.0 0.00 0.00 0.00 45 997.2
20260505003303 75 198 3.5 7.0 0.00 0.00 0.00 45 997.2
20260505002304 76 166 4.3 8.7 0.00 0.00 0.00 44 997.3
20260505001803 76 147 4.3 8.7 0.00 0.00 0.00 44 997.1
20260505001304 76 140 4.3 8.7 0.00 0.00 0.00 44 997.2
20260505000803 77 109 3.5 10.4 0.00 0.00 0.00 44 997.2
20260504235803 77 132 4.3 10.4 0.00 0.00 0.00 41 997.2
20260504234804 77 156 2.6 15.6 0.00 0.00 0.00 41 997.2
20260504233803 78 149 2.6 10.4 0.00 0.00 0.00 42 997.3
20260504233303 78 203 1.7 5.2 0.00 0.00 0.00 41 997.3
20260504232304 79 130 1.7 10.4 0.00 0.00 0.00 41 997.4
20260504231804 79 224 2.6 10.4 0.00 0.00 0.00 39 997.3
20260504231303 79 193 2.6 7.0 0.00 0.00 0.00 39 997.4
20260504230804 80 158 3.5 10.4 0.00 0.00 0.00 39 997.4
20260504225305 80 109 2.6 12.2 0.00 0.00 0.00 38 997.5
20260504224804 80 142 2.6 7.0 0.00 0.00 0.00 37 997.5
20260504224303 80 16 2.6 10.4 0.00 0.00 0.00 38 997.5
20260504223803 80 5 4.3 8.7 0.00 0.00 0.00 38 997.5
20260504223304 80 154 3.5 8.7 0.00 0.00 0.00 37 997.5
20260504222803 80 133 5.2 11.3 0.00 0.00 0.00 38 997.5
20260504222305 81 131 6.1 12.2 0.00 0.00 0.00 36 997.5
20260504221304 81 132 4.3 7.0 0.00 0.00 0.00 38 997.5
20260504213304 81 133 2.6 11.3 0.00 0.00 0.00 38 997.7
20260504211804 81 131 5.2 11.3 0.00 0.00 0.00 38 997.6
20260504211303 82 128 7.8 12.2 0.00 0.00 0.00 38 997.7
20260504210303 82 132 7.0 13.9 0.00 0.00 0.00 37 997.9
20260504202804 83 126 5.2 7.8 0.00 0.00 0.00 36 998.3
20260504201803 82 324 5.2 8.7 0.00 0.00 0.00 40 998.4
20260504200303 82 130 7.8 11.3 0.00 0.00 0.00 38 998.7
20260504195804 82 130 7.8 11.3 0.00 0.00 0.00 37 998.8
20260504195304 82 128 5.2 8.7 0.00 0.00 0.00 38 998.8
20260504194804 82 128 5.2 8.7 0.00 0.00 0.00 38 998.9
20260504194304 82 122 6.1 12.2 0.00 0.00 0.00 38 999.0
20260504193304 82 131 6.1 11.3 0.00 0.00 0.00 37 999.2
20260504192804 82 129 5.2 8.7 0.00 0.00 0.00 37 999.3
20260504192304 82 122 4.3 11.3 0.00 0.00 0.00 37 999.2
20260504191804 82 121 6.1 10.4 0.00 0.00 0.00 38 999.2
20260504191303 82 322 4.3 7.0 0.00 0.00 0.00 38 999.4
20260504190804 82 320 4.3 7.8 0.00 0.00 0.00 38 999.6
20260504185804 82 324 4.3 8.7 0.00 0.00 0.00 40 999.5
20260504185304 82 128 4.3 8.7 0.00 0.00 0.00 37 999.6
20260504184304 81 131 7.8 11.3 0.00 0.00 0.00 40 999.7
20260504183803 81 46 4.3 7.0 0.00 0.00 0.00 42 999.7
20260504183304 80 115 4.3 17.4 0.00 0.00 0.00 39 999.8
20260504182304 80 142 5.2 15.6 0.00 0.00 0.00 40 1000.0
20260504181803 79 153 4.3 15.6 0.00 0.00 0.00 40 999.9
20260504181303 79 85 2.6 10.4 0.00 0.00 0.00 43 1000.1
20260504180303 80 107 3.5 8.7 0.00 0.00 0.00 39 1000.3
20260504174803 80 102 4.3 8.7 0.00 0.00 0.00 40 1000.3
20260504174303 80 327 4.3 10.4 0.00 0.00 0.00 41 1000.5
20260504173804 80 336 3.5 13.0 0.00 0.00 0.00 44 1000.6
20260504173304 80 123 2.6 10.4 0.00 0.00 0.00 44 1000.6
20260504172804 80 328 3.5 7.0 0.00 0.00 0.00 41 1000.5
20260504172304 79 108 2.6 8.7 0.00 0.00 0.00 43 1000.6
20260504171304 79 317 2.6 6.1 0.00 0.00 0.00 43 1000.7
20260504160304 76 228 2.6 2.6 0.00 0.00 0.00 49 1001.7
20260504150804 72 227 2.6 10.4 0.00 0.00 0.00 55 1002.0
20260504150304 73 228 2.6 2.6 0.00 0.00 0.00 55 1002.0
20260504140304 69 230 2.6 5.2 0.00 0.00 0.00 64 1002.3
20260504130803 64 125 2.6 5.2 0.00 0.00 0.00 70 1001.9
20260504130304 64 154 2.6 4.3 0.00 0.00 0.00 70 1001.9
20260504100304 58 53 0.0 1.7 0.00 0.00 0.00 77 1001.4
20260504080803 62 188 0.9 4.3 0.00 0.00 0.00 64 1001.7
20260504050305 60 105 0.0 0.0 0.00 0.00 0.00 69 1003.2
20260504045805 60 105 0.0 0.9 0.00 0.00 0.00 67 1003.1
20260504044804 60 97 0.0 1.7 0.00 0.00 0.00 66 1003.1
20260504044304 61 271 0.0 0.0 0.00 0.00 0.00 66 1003.2
20260504043304 61 148 0.9 2.6 0.00 0.00 0.00 64 1003.2
20260504042803 61 125 0.9 2.6 0.00 0.00 0.00 64 1003.2
20260504042305 60 132 0.9 2.6 0.00 0.00 0.00 66 1003.2
20260504041304 61 107 0.9 2.6 0.00 0.00 0.00 65 1003.1
20260504040304 61 114 0.9 1.7 0.00 0.00 0.00 64 1003.1
20260504034804 61 134 0.9 2.6 0.00 0.00 0.00 62 1003.2
20260504034304 61 81 0.9 2.6 0.00 0.00 0.00 65 1003.2
20260504033804 61 225 0.9 0.9 0.00 0.00 0.00 64 1003.3
20260504032804 61 226 0.9 0.9 0.00 0.00 0.00 64 1003.4
20260504025803 62 226 0.9 0.9 0.00 0.00 0.00 63 1003.6